Location: Bella Coola
(52.3721°N, 126.7539°W)
Time: 18:19:56
(UTC-07:00)

ISS - Visible Passes

Search period start: 23 May 2019 00:00
Search period end: 02 June 2019 00:00
Orbit: 408 x 418 km, 51.6° (Epoch: 24 May)

Date Brightness Start Highest point End Pass type
(mag) Time Alt. Az. Time Alt. Az. Time Alt. Az.
23 May -3.9 00:35:34 10° W 00:38:55 69° S 00:40:27 29° ESE visible
23 May -1.6 02:12:24 10° W 02:13:14 15° W 02:13:14 15° W visible
23 May -3.7 22:09:32 10° WSW 22:12:50 63° SSE 22:16:10 10° E visible
23 May -3.9 23:46:06 10° W 23:49:27 77° S 23:52:21 13° E visible
24 May -2.8 01:22:49 10° W 01:25:09 31° WSW 01:25:09 31° WSW visible
24 May -3.8 22:56:37 10° W 22:59:58 81° S 23:03:21 10° E visible
25 May -3.5 00:33:17 10° W 00:36:32 47° SSW 00:37:06 42° SSE visible
25 May -3.8 23:43:47 10° W 23:47:05 60° SSW 23:49:07 21° ESE visible
26 May -1.7 01:20:46 10° W 01:21:54 16° WSW 01:21:54 16° WSW visible
26 May -3.8 22:54:16 10° W 22:57:37 72° S 23:00:58 10° ESE visible
27 May -2.7 00:31:03 10° W 00:33:57 29° SSW 00:33:57 29° SSW visible
27 May -3.2 23:41:27 10° W 23:44:36 39° SSW 23:46:00 25° SSE visible
28 May -3.5 22:51:54 10° W 22:55:09 51° SSW 22:58:05 12° ESE visible
29 May -1.8 00:29:10 10° WSW 00:30:53 16° SW 00:30:53 16° SW visible
29 May -2.3 23:39:16 10° W 23:41:58 23° SSW 23:42:59 20° S visible
30 May -2.7 22:49:32 10° W 22:52:34 31° SSW 22:55:07 13° SSE visible
31 May -1.5 23:37:43 10° WSW 23:39:08 12° SW 23:40:04 11° SSW visible
01 Jun -1.8 22:47:27 10° W 22:49:47 18° SW 22:52:08 10° S visible
